Indianapolis, IN

9:46 PM EDT on September 17, 2019 (GMT -0400)
Indianapolis International

Weather History for KIND - May, 2019

Change the Weather History Date:

Thursday, May 23, 2019

  Actual Average Record
Temperature  
Mean Temperature 75 °F 65 °F  
Max Temperature 84 °F 75 °F 92 °F (1939)
Min Temperature 65 °F 55 °F 37 °F (1963)
Degree Days  
Heating Degree Days 0 3  
Month to date heating degree days 125 121  
Since 1 July heating degree days 5376 5343  
Cooling Degree Days 10 3  
Month to date cooling degree days 36 40  
Year to date cooling degree days 37 55  
Growing Degree Days 24 (Base 50)    
Moisture  
Dew Point 67 °F    
Average Humidity 76    
Maximum Humidity 93    
Minimum Humidity 58    
Precipitation  
Precipitation 0.57 in 0.16 in 3.13 in (1968)
Month to date precipitation 3.53 3.78  
Year to date precipitation 21.01 16.13  
Snow  
Snow 0.00 in 0.00 in 0.00 in ()
Month to date snowfall 0.0 0.0  
Since 1 July snowfall 19.4 25.9  
Snow Depth 0.00 in    
Sea Level Pressure  
Sea Level Pressure 30.04 in    
Wind  
Wind Speed 11 mph (WSW)    
Max Wind Speed 41 mph    
Max Gust Speed 57 mph    
Visibility 9 miles    
Events Rain , Thunderstorm    
T = Trace of Precipitation, MM = Missing Value Source: NWS Daily Summary

Daily Weather History Graph

Daily Weather History Graph

Search for Another Location

Airport or City:

Astronomy

May. 23, 2019 Rise Set
Actual Time 6:24 AM EDT 8:59 PM EDT
Civil Twilight 5:53 AM EDT 9:31 PM EDT
Nautical Twilight 5:14 AM EDT 10:10 PM EDT
Astronomical Twilight 4:30 AM EDT 10:53 PM EDT
Moon 12:42 AM EDT (5/23) 10:27 AM EDT (5/23)
Length of Visible Light 15h 38m
Length of Day
14h 35m
Waning Gibbous, 77% of the Moon is Illuminated
May 23
Waning Gibbous
May 26
Last Quarter
Jun 3
New
Jun 10
First Quarter
Jun 17
Full

Hourly Weather History & Observations

Time (EDT) Temp. Heat Index Dew Point Humidity Pressure Visibility Wind Dir Wind Speed Gust Speed Precip Events Conditions
12:54 AM 69.1 °F - 64.9 °F 87% 30.00 in 10.0 mi South 10.4 mph - N/A   Partly Cloudy
1:54 AM 68.0 °F - 64.9 °F 90% 29.97 in 10.0 mi SSE 8.1 mph - N/A   Clear
2:54 AM 66.9 °F - 64.9 °F 93% 29.98 in 8.0 mi Calm Calm - N/A   Partly Cloudy
3:54 AM 71.1 °F - 68.0 °F 90% 29.97 in 10.0 mi South 11.5 mph - N/A   Mostly Cloudy
4:54 AM 72.0 °F - 69.1 °F 91% 29.98 in 10.0 mi SSW 12.7 mph - N/A   Mostly Cloudy
5:19 AM 72.0 °F - 69.1 °F 91% 30.04 in 10.0 mi WNW 29.9 mph 42.6 mph 0.00 in Rain , Thunderstorm Light Thunderstorms and Rain
5:26 AM 68.0 °F - 62.1 °F 81% 30.06 in 2.0 mi West 33.4 mph 57.5 mph 0.05 in Rain , Thunderstorm Thunderstorms and Rain
5:31 AM 64.9 °F - 63.0 °F 93% 30.06 in 3.0 mi West 25.3 mph 57.5 mph 0.14 in Rain , Thunderstorm Heavy Thunderstorms and Rain
5:54 AM 64.9 °F - 63.0 °F 93% 30.05 in 7.0 mi WNW 10.4 mph 28.8 mph 0.30 in Rain , Thunderstorm Light Thunderstorms and Rain
6:54 AM 64.9 °F - 63.0 °F 93% 30.08 in 5.0 mi WSW 12.7 mph - 0.11 in Rain , Thunderstorm Light Thunderstorms and Rain
7:54 AM 64.9 °F - 63.0 °F 93% 30.07 in 10.0 mi SW 11.5 mph - 0.16 in Rain Light Rain
8:54 AM 66.9 °F - 63.0 °F 87% 30.05 in 10.0 mi SW 11.5 mph - 0.00 in   Overcast
9:54 AM 71.1 °F - 64.9 °F 81% 30.04 in 10.0 mi SW 8.1 mph - N/A   Mostly Cloudy
10:54 AM 72.0 °F - 64.9 °F 78% 30.06 in 10.0 mi SW 13.8 mph 23.0 mph N/A   Overcast
11:04 AM 72.0 °F - 64.9 °F 78% 30.08 in 10.0 mi SW 13.8 mph - N/A   Overcast
11:44 AM 73.9 °F - 68.0 °F 82% 30.08 in 10.0 mi WSW 15.0 mph - N/A   Mostly Cloudy
11:54 AM 73.9 °F - 68.0 °F 82% 30.06 in 10.0 mi WSW 16.1 mph - N/A   Mostly Cloudy
12:31 PM 77.0 °F - 70.0 °F 79% 30.07 in 10.0 mi SW 17.3 mph 24.2 mph N/A   Overcast
12:54 PM 77.0 °F - 70.0 °F 79% 30.06 in 10.0 mi SW 15.0 mph - N/A   Overcast
1:54 PM 79.0 °F - 71.1 °F 77% 30.06 in 10.0 mi WSW 15.0 mph - N/A   Overcast
2:54 PM 82.0 °F 87.4 °F 73.0 °F 74% 30.04 in 10.0 mi WSW 12.7 mph - N/A   Mostly Cloudy
3:54 PM 82.0 °F 86.3 °F 71.1 °F 69% 30.02 in 10.0 mi WSW 17.3 mph - N/A   Mostly Cloudy
4:54 PM 82.0 °F 85.9 °F 70.0 °F 67% 30.02 in 10.0 mi WSW 19.6 mph - N/A   Mostly Cloudy
5:54 PM 82.9 °F 85.4 °F 66.9 °F 58% 30.03 in 10.0 mi West 20.7 mph 28.8 mph N/A   Mostly Cloudy
6:54 PM 82.0 °F 84.5 °F 66.9 °F 60% 30.03 in 10.0 mi West 16.1 mph - N/A   Scattered Clouds
7:54 PM 80.1 °F 82.7 °F 68.0 °F 67% 30.03 in 10.0 mi WNW 10.4 mph - N/A   Scattered Clouds
8:54 PM 75.9 °F - 68.0 °F 76% 30.04 in 10.0 mi WNW 8.1 mph - N/A   Scattered Clouds
9:54 PM 73.0 °F - 68.0 °F 84% 30.06 in 10.0 mi NW 6.9 mph - N/A   Partly Cloudy
10:54 PM 72.0 °F - 68.0 °F 87% 30.08 in 10.0 mi WNW 5.8 mph - N/A   Partly Cloudy
11:54 PM 71.1 °F - 66.9 °F 87% 30.08 in 10.0 mi North 5.8 mph - N/A   Partly Cloudy